Volver al catálogo

COSMOS 1275 DEB

ActivoPO
NORAD 13483·DEBRIS·🇷🇺 Russia

Lanzado Jun 4, 1981 desde Plesetsk Cosmodrome

Loading…

Próximos Pases (próximas 24 horas)

TLE

ActualizadoSource: Space-Track

Época: Sep 14, 2026, 07:33 UTC

1 13483U 81053GD  26257.31460904  .00001697  00000-0  74705-3 0  9994
2 13483  82.9236  14.1391 0010235 177.2886 212.2634 14.22941541260089

Sigue COSMOS 1275 DEB en tiempo real con AllMySat

Download on the App Store